Time,TemperatureF,DewpointF,PressureIn,WindDirection,WindDirectionDegrees,WindSpeedMPH,WindSpeedGustMPH,Humidity,HourlyPrecipIn,Conditions,Clouds,dailyrainin,SoftwareType,DateUTC
2013-08-07 00:03:00,64.7,41.0,31.95,NW,305,7.0,10.0,42,0.00,,,0.00,weatherlink.com 1.10,2013-08-07 06:03:00,
2013-08-07 00:18:00,64.7,41.0,31.95,NW,308,8.0,9.0,42,0.00,,,0.00,weatherlink.com 1.10,2013-08-07 06:18:00,
2013-08-07 00:33:00,64.4,41.0,31.95,NW,309,5.0,8.0,42,0.00,,,0.00,weatherlink.com 1.10,2013-08-07 06:33:00,
2013-08-07 00:48:00,64.2,41.0,31.95,WNW,299,3.0,6.0,43,0.00,,,0.00,weatherlink.com 1.10,2013-08-07 06:48:00,
2013-08-07 01:03:00,64.4,41.0,31.95,WNW,300,4.0,7.0,42,0.00,,,0.00,weatherlink.com 1.10,2013-08-07 07:03:00,
2013-08-07 01:18:00,64.3,41.0,31.95,WNW,294,5.0,5.0,42,0.00,,,0.00,weatherlink.com 1.10,2013-08-07 07:18:00,
2013-08-07 01:33:00,64.2,41.0,31.95,WNW,287,4.0,5.0,43,0.00,,,0.00,weatherlink.com 1.10,2013-08-07 07:33:00,
2013-08-07 01:48:00,63.6,41.0,31.95,WNW,286,2.0,4.0,44,0.00,,,0.00,weatherlink.com 1.10,2013-08-07 07:48:00,
2013-08-07 02:03:00,62.2,40.0,31.95,WNW,286,2.0,4.0,45,0.00,,,0.00,weatherlink.com 1.10,2013-08-07 08:03:00,
2013-08-07 02:18:00,62.3,41.0,31.95,WSW,246,4.0,6.0,46,0.00,,,0.00,weatherlink.com 1.10,2013-08-07 08:18:00,
2013-08-07 02:33:00,62.3,41.0,31.95,SSW,210,6.0,6.0,46,0.00,,,0.00,weatherlink.com 1.10,2013-08-07 08:33:00,
2013-08-07 02:48:00,62.3,41.0,31.95,SSW,193,7.0,8.0,46,0.00,,,0.00,weatherlink.com 1.10,2013-08-07 08:48:00,
2013-08-07 03:03:00,61.8,41.0,31.95,SSW,202,6.0,7.0,47,0.00,,,0.00,weatherlink.com 1.10,2013-08-07 09:03:00,
2013-08-07 03:18:00,62.0,41.0,31.95,SSW,200,7.0,7.0,46,0.00,,,0.00,weatherlink.com 1.10,2013-08-07 09:18:00,
2013-08-07 03:33:00,62.1,41.0,31.95,SSE,168,5.0,7.0,46,0.00,,,0.00,weatherlink.com 1.10,2013-08-07 09:33:00,
2013-08-07 03:48:00,60.1,40.0,31.95,SE,134,5.0,7.0,48,0.00,,,0.00,weatherlink.com 1.10,2013-08-07 09:48:00,
2013-08-07 04:03:00,59.9,40.0,31.95,SSE,155,5.0,7.0,49,0.00,,,0.00,weatherlink.com 1.10,2013-08-07 10:03:00,
2013-08-07 04:18:00,59.7,41.0,31.95,SSE,153,5.0,8.0,50,0.00,,,0.00,weatherlink.com 1.10,2013-08-07 10:18:00,
2013-08-07 04:33:00,59.3,41.0,31.95,SSE,148,6.0,7.0,51,0.00,,,0.00,weatherlink.com 1.10,2013-08-07 10:33:00,
2013-08-07 04:48:00,59.4,41.0,31.95,SSE,157,5.0,7.0,50,0.00,,,0.00,weatherlink.com 1.10,2013-08-07 10:48:00,
2013-08-07 05:03:00,59.8,40.0,31.95,SSE,159,5.0,6.0,49,0.00,,,0.00,weatherlink.com 1.10,2013-08-07 11:03:00,
2013-08-07 05:18:00,59.7,40.0,31.95,SSE,161,6.0,8.0,49,0.00,,,0.00,weatherlink.com 1.10,2013-08-07 11:18:00,
2013-08-07 05:33:00,59.5,40.0,31.95,SSE,153,8.0,9.0,49,0.00,,,0.00,weatherlink.com 1.10,2013-08-07 11:33:00,
2013-08-07 05:48:00,59.2,40.0,31.95,SSE,161,6.0,9.0,50,0.00,,,0.00,weatherlink.com 1.10,2013-08-07 11:48:00,
2013-08-07 06:03:00,59.1,40.0,31.95,SSE,166,6.0,7.0,50,0.00,,,0.00,weatherlink.com 1.10,2013-08-07 12:03:00,
2013-08-07 06:18:00,59.2,40.0,31.95,South,178,5.0,7.0,49,0.00,,,0.00,weatherlink.com 1.10,2013-08-07 12:18:00,
2013-08-07 06:34:00,59.4,39.0,31.95,SSE,166,7.0,7.0,48,0.00,,,0.00,weatherlink.com 1.10,2013-08-07 12:34:00,
2013-08-07 06:49:00,59.5,40.0,31.95,South,169,7.0,9.0,48,0.00,,,0.00,weatherlink.com 1.10,2013-08-07 12:49:00,
2013-08-07 07:04:00,59.8,40.0,31.95,SSE,167,7.0,8.0,48,0.00,,,0.00,weatherlink.com 1.10,2013-08-07 13:04:00,
2013-08-07 07:19:00,59.9,40.0,31.95,SSE,159,6.0,9.0,48,0.00,,,0.00,weatherlink.com 1.10,2013-08-07 13:19:00,
2013-08-07 07:34:00,60.0,40.0,31.95,SE,145,6.0,11.0,48,0.00,,,0.00,weatherlink.com 1.10,2013-08-07 13:34:00,
2013-08-07 07:49:00,60.4,40.0,31.95,SE,139,7.0,9.0,48,0.00,,,0.00,weatherlink.com 1.10,2013-08-07 13:49:00,
2013-08-07 08:04:00,60.9,40.0,31.95,SE,144,8.0,11.0,47,0.00,,,0.00,weatherlink.com 1.10,2013-08-07 14:04:00,
2013-08-07 08:19:00,60.9,41.0,31.95,SE,141,7.0,9.0,48,0.00,,,0.00,weatherlink.com 1.10,2013-08-07 14:19:00,
2013-08-07 08:34:00,61.2,41.0,31.95,SSE,149,9.0,9.0,48,0.00,,,0.00,weatherlink.com 1.10,2013-08-07 14:34:00,
2013-08-07 08:49:00,61.7,42.0,31.95,SE,136,4.0,10.0,49,0.00,,,0.00,weatherlink.com 1.10,2013-08-07 14:49:00,
2013-08-07 09:04:00,61.2,42.0,31.95,SE,144,7.0,11.0,49,0.00,,,0.00,weatherlink.com 1.10,2013-08-07 15:04:00,
2013-08-07 09:19:00,62.2,42.0,31.95,SE,143,5.0,9.0,47,0.00,,,0.00,weatherlink.com 1.10,2013-08-07 15:19:00,
2013-08-07 09:34:00,63.3,41.0,31.95,ESE,115,7.0,9.0,45,0.00,,,0.00,weatherlink.com 1.10,2013-08-07 15:34:00,
2013-08-07 09:49:00,63.3,41.0,31.95,SSE,150,7.0,10.0,45,0.00,,,0.00,weatherlink.com 1.10,2013-08-07 15:49:00,
2013-08-07 10:04:00,63.8,41.0,31.95,SSE,155,5.0,10.0,44,0.00,,,0.00,weatherlink.com 1.10,2013-08-07 16:04:00,
2013-08-07 10:19:00,64.2,42.0,31.95,ESE,121,4.0,10.0,44,0.00,,,0.00,weatherlink.com 1.10,2013-08-07 16:19:00,
2013-08-07 10:35:00,65.1,41.0,31.95,ESE,113,7.0,9.0,42,0.00,,,0.00,weatherlink.com 1.10,2013-08-07 16:35:00,
2013-08-07 10:50:00,66.0,40.0,31.95,ESE,111,7.0,9.0,39,0.00,,,0.00,weatherlink.com 1.10,2013-08-07 16:50:00,
2013-08-07 11:05:00,67.6,42.0,31.95,South,171,5.0,6.0,39,0.00,,,0.00,weatherlink.com 1.10,2013-08-07 17:05:00,
2013-08-07 11:20:00,68.0,41.0,31.95,SSE,162,2.0,6.0,38,0.00,,,0.00,weatherlink.com 1.10,2013-08-07 17:20:00,
2013-08-07 11:35:00,69.0,41.0,31.95,SW,221,2.0,6.0,36,0.00,,,0.00,weatherlink.com 1.10,2013-08-07 17:35:00,
2013-08-07 11:50:00,70.4,38.0,31.95,ESE,106,3.0,8.0,31,0.00,,,0.00,weatherlink.com 1.10,2013-08-07 17:50:00,
2013-08-07 12:05:00,70.3,41.0,31.95,SE,140,4.0,8.0,34,0.00,,,0.00,weatherlink.com 1.10,2013-08-07 18:05:00,
2013-08-07 12:20:00,71.3,36.0,31.95,West,275,4.0,6.0,28,0.00,,,0.00,weatherlink.com 1.10,2013-08-07 18:20:00,
2013-08-07 12:35:00,71.6,39.0,31.89,SW,233,4.0,6.0,30,0.00,,,0.00,weatherlink.com 1.10,2013-08-07 18:35:00,
2013-08-07 12:50:00,70.8,37.0,31.89,SW,219,1.0,8.0,29,0.00,,,0.00,weatherlink.com 1.10,2013-08-07 18:50:00,
2013-08-07 13:05:00,71.0,38.0,31.89,South,175,1.0,8.0,30,0.00,,,0.00,weatherlink.com 1.10,2013-08-07 19:05:00,
2013-08-07 13:20:00,72.1,40.0,31.89,WNW,298,5.0,7.0,31,0.00,,,0.00,weatherlink.com 1.10,2013-08-07 19:20:00,
2013-08-07 13:35:00,72.7,37.0,31.89,NNW,344,5.0,10.0,27,0.00,,,0.00,weatherlink.com 1.10,2013-08-07 19:35:00,
2013-08-07 13:50:00,71.4,38.0,31.89,NW,304,6.0,11.0,30,0.00,,,0.00,weatherlink.com 1.10,2013-08-07 19:50:00,
2013-08-07 14:05:00,71.7,38.0,31.89,South,190,3.0,10.0,29,0.00,,,0.00,weatherlink.com 1.10,2013-08-07 20:05:00,
2013-08-07 14:20:00,74.0,38.0,31.89,NW,319,3.0,7.0,27,0.00,,,0.00,weatherlink.com 1.10,2013-08-07 20:20:00,
2013-08-07 14:35:00,73.0,36.0,31.89,NW,318,2.0,9.0,26,0.00,,,0.00,weatherlink.com 1.10,2013-08-07 20:35:00,
2013-08-07 14:50:00,72.2,36.0,31.89,SW,231,5.0,10.0,27,0.00,,,0.00,weatherlink.com 1.10,2013-08-07 20:50:00,
2013-08-07 15:05:00,73.8,38.0,31.89,West,281,6.0,10.0,27,0.00,,,0.00,weatherlink.com 1.10,2013-08-07 21:05:00,
2013-08-07 15:20:00,72.3,37.0,31.89,West,271,4.0,8.0,28,0.00,,,0.00,weatherlink.com 1.10,2013-08-07 21:20:00,
2013-08-07 15:35:00,72.1,37.0,31.89,SW,226,4.0,6.0,28,0.00,,,0.00,weatherlink.com 1.10,2013-08-07 21:35:00,
2013-08-07 15:50:00,73.7,38.0,31.89,East,93,6.0,8.0,27,0.00,,,0.00,weatherlink.com 1.10,2013-08-07 21:50:00,
2013-08-07 16:05:00,75.7,38.0,31.89,WSW,249,2.0,8.0,26,0.00,,,0.00,weatherlink.com 1.10,2013-08-07 22:05:00,
2013-08-07 16:20:00,74.9,38.0,31.89,SW,223,5.0,11.0,26,0.00,,,0.00,weatherlink.com 1.10,2013-08-07 22:20:00,
2013-08-07 16:35:00,76.9,39.0,31.89,West,281,1.0,7.0,26,0.00,,,0.00,weatherlink.com 1.10,2013-08-07 22:35:00,
2013-08-07 16:50:00,75.5,39.0,31.89,West,273,8.0,13.0,27,0.00,,,0.00,weatherlink.com 1.10,2013-08-07 22:50:00,
2013-08-07 17:05:00,77.4,39.0,31.89,SW,232,6.0,11.0,25,0.00,,,0.00,weatherlink.com 1.10,2013-08-07 23:05:00,
2013-08-07 17:21:00,77.9,39.0,31.89,WSW,242,4.0,9.0,25,0.00,,,0.00,weatherlink.com 1.10,2013-08-07 23:21:00,
2013-08-07 17:36:00,78.8,39.0,31.89,WNW,289,9.0,12.0,24,0.00,,,0.00,weatherlink.com 1.10,2013-08-07 23:36:00,
2013-08-07 17:51:00,77.0,39.0,31.89,NW,323,5.0,9.0,25,0.00,,,0.00,weatherlink.com 1.10,2013-08-07 23:51:00,
2013-08-07 18:06:00,76.4,39.0,31.89,WNW,300,4.0,9.0,26,0.00,,,0.00,weatherlink.com 1.10,2013-08-08 00:06:00,
2013-08-07 18:21:00,75.9,38.0,31.89,West,265,2.0,10.0,25,0.00,,,0.00,weatherlink.com 1.10,2013-08-08 00:21:00,
2013-08-07 18:36:00,75.9,37.0,31.89,SW,228,10.0,12.0,24,0.00,,,0.00,weatherlink.com 1.10,2013-08-08 00:36:00,
2013-08-07 18:51:00,75.9,39.0,31.89,West,260,4.0,10.0,26,0.00,,,0.00,weatherlink.com 1.10,2013-08-08 00:51:00,
2013-08-07 19:06:00,75.4,38.0,31.89,West,265,2.0,11.0,26,0.00,,,0.00,weatherlink.com 1.10,2013-08-08 01:06:00,
2013-08-07 19:21:00,76.1,39.0,31.89,NE,40,2.0,7.0,26,0.00,,,0.00,weatherlink.com 1.10,2013-08-08 01:21:00,
2013-08-07 19:36:00,74.4,36.0,31.89,East,86,2.0,9.0,25,0.00,,,0.00,weatherlink.com 1.10,2013-08-08 01:36:00,
2013-08-07 19:51:00,73.8,37.0,31.89,NW,322,6.0,10.0,26,0.00,,,0.00,weatherlink.com 1.10,2013-08-08 01:51:00,
2013-08-07 20:06:00,73.0,37.0,31.89,NW,311,3.0,10.0,27,0.00,,,0.00,weatherlink.com 1.10,2013-08-08 02:06:00,
2013-08-07 20:21:00,72.4,36.0,31.89,NW,313,3.0,8.0,26,0.00,,,0.00,weatherlink.com 1.10,2013-08-08 02:21:00,
2013-08-07 20:36:00,71.7,38.0,31.89,NW,312,7.0,7.0,29,0.00,,,0.00,weatherlink.com 1.10,2013-08-08 02:36:00,
2013-08-07 20:51:00,71.1,39.0,31.89,NNW,342,7.0,8.0,31,0.00,,,0.00,weatherlink.com 1.10,2013-08-08 02:51:00,
2013-08-07 21:06:00,70.5,38.0,31.89,NW,323,5.0,7.0,31,0.00,,,0.00,weatherlink.com 1.10,2013-08-08 03:06:00,
2013-08-07 21:21:00,70.1,38.0,31.89,NW,323,7.0,9.0,31,0.00,,,0.00,weatherlink.com 1.10,2013-08-08 03:21:00,
2013-08-07 21:36:00,70.2,38.0,31.89,NW,310,6.0,10.0,31,0.00,,,0.00,weatherlink.com 1.10,2013-08-08 03:36:00,
2013-08-07 21:51:00,69.9,39.0,31.89,NW,317,8.0,10.0,32,0.00,,,0.00,weatherlink.com 1.10,2013-08-08 03:51:00,
2013-08-07 22:06:00,69.8,38.0,31.89,NW,325,8.0,10.0,31,0.00,,,0.00,weatherlink.com 1.10,2013-08-08 04:06:00,
2013-08-07 22:21:00,69.7,38.0,31.89,WNW,291,7.0,9.0,32,0.00,,,0.00,weatherlink.com 1.10,2013-08-08 04:21:00,
2013-08-07 22:36:00,68.7,38.0,31.89,WNW,293,9.0,12.0,33,0.00,,,0.00,weatherlink.com 1.10,2013-08-08 04:36:00,
2013-08-07 22:51:00,68.0,35.0,31.89,WNW,295,6.0,12.0,30,0.00,,,0.00,weatherlink.com 1.10,2013-08-08 04:51:00,
2013-08-07 23:06:00,67.5,37.0,31.89,West,260,10.0,12.0,32,0.00,,,0.00,weatherlink.com 1.10,2013-08-08 05:06:00,
2013-08-07 23:21:00,67.3,36.0,31.89,NW,316,10.0,14.0,32,0.00,,,0.00,weatherlink.com 1.10,2013-08-08 05:21:00,
2013-08-07 23:36:00,67.0,37.0,31.89,NW,314,9.0,15.0,33,0.00,,,0.00,weatherlink.com 1.10,2013-08-08 05:36:00,
2013-08-07 23:51:00,66.8,37.0,31.89,NW,312,10.0,16.0,34,0.00,,,0.00,weatherlink.com 1.10,2013-08-08 05:51:00,